Change the Weather History Date:

Friday, February 10, 2012

  Actual Average Record
Temperature  
Mean Temperature 28 °F -  
Max Temperature 36 °F 32 °F 64 °F (2009)
Min Temperature 19 °F 15 °F -17 °F (2014)
Degree Days  
Heating Degree Days 37    
Moisture  
Dew Point 21 °F    
Average Humidity 70    
Maximum Humidity 80    
Minimum Humidity 46    
Precipitation  
Precipitation 0.00 in - - ()
Sea Level Pressure  
Sea Level Pressure 30.07 in    
Wind  
Wind Speed 13 mph (West)    
Max Wind Speed 23 mph    
Max Gust Speed 31 mph    
Visibility 9 miles    
Events Snow    
Averages and records for this station are not official NWS values.
T = Trace of Precipitation, MM = Missing Value Source: NWS Daily Summary

Daily Weather History Graph

Daily Weather History Graph

Search for Another Location

Airport or City:

Trip Planner

Search our weather history database for the weather conditions in past years. The results will help you decide how hot, cold, wet, or windy it might be!

Date:

Astronomy

Feb. 10, 2012 Rise Set
Actual Time 7:02 AM CST 5:29 PM CST
Civil Twilight 6:34 AM CST 5:58 PM CST
Nautical Twilight 6:02 AM CST 6:30 PM CST
Astronomical Twilight 5:30 AM CST 7:02 PM CST
Moon 9:10 PM CST (2/10) 8:09 AM CST (2/10)
Length of Visible Light 11h 23m
Length of Day
10h 26m
Waning Gibbous, 90% of the Moon is Illuminated
Feb 10
Waning Gibbous
Feb 14
Last Quarter
Feb 21
New
Feb 29
First Quarter
Mar 8
Full

Hourly Weather History & Observations

Time (CST) Temp. Windchill Dew Point Humidity Pressure Visibility Wind Dir Wind Speed Gust Speed Precip Events Conditions
12:15 AM 34.9 °F 27.7 °F 26.6 °F 72% 30.07 in 10.0 mi South 9.2 mph - N/A   Overcast
12:35 AM 34.7 °F 27.5 °F 26.8 °F 73% 30.06 in 10.0 mi South 9.2 mph - N/A   Overcast
12:55 AM 34.7 °F 26.4 °F 27.0 °F 73% 30.05 in 10.0 mi South 11.5 mph - N/A   Overcast
1:15 AM 34.9 °F 27.1 °F 27.0 °F 73% 30.05 in 10.0 mi South 10.4 mph - N/A   Overcast
1:35 AM 35.1 °F 27.4 °F 27.1 °F 73% 30.04 in 10.0 mi South 10.4 mph - N/A   Overcast
1:55 AM 34.9 °F 27.1 °F 27.3 °F 74% 30.04 in 10.0 mi South 10.4 mph - N/A   Overcast
2:15 AM 35.1 °F 26.9 °F 27.3 °F 73% 30.04 in 10.0 mi South 11.5 mph - N/A   Overcast
2:35 AM 35.1 °F 26.4 °F 27.5 °F 74% 30.03 in 10.0 mi South 12.7 mph - N/A   Overcast
2:55 AM 34.9 °F 27.1 °F 27.7 °F 75% 30.01 in 10.0 mi South 10.4 mph - N/A   Overcast
3:15 AM 34.9 °F 28.3 °F 28.0 °F 76% 30.00 in 10.0 mi South 8.1 mph - N/A   Overcast
3:35 AM 34.7 °F 27.5 °F 28.4 °F 78% 29.99 in 10.0 mi South 9.2 mph - N/A   Overcast
3:55 AM 34.7 °F 27.5 °F 28.4 °F 78% 29.99 in 10.0 mi South 9.2 mph - N/A   Overcast
4:15 AM 34.7 °F 28.1 °F 28.6 °F 78% 29.98 in 10.0 mi South 8.1 mph - N/A   Overcast
4:35 AM 34.9 °F 27.7 °F 28.9 °F 79% 29.97 in 10.0 mi South 9.2 mph - N/A   Overcast
4:55 AM 34.9 °F 28.3 °F 29.1 °F 79% 29.97 in 10.0 mi South 8.1 mph - N/A   Overcast
5:15 AM 34.9 °F 28.3 °F 29.3 °F 80% 29.96 in 10.0 mi South 8.1 mph - N/A   Overcast
5:35 AM 35.1 °F 27.9 °F 29.3 °F 80% 29.96 in 10.0 mi South 9.2 mph - N/A   Overcast
5:55 AM 35.2 °F 27.6 °F 29.5 °F 80% 29.96 in 10.0 mi South 10.4 mph - N/A   Overcast
6:15 AM 35.6 °F 28.0 °F 29.7 °F 79% 29.96 in 10.0 mi SSW 10.4 mph - N/A   Overcast
6:35 AM 35.6 °F 28.6 °F 29.7 °F 79% 29.95 in 10.0 mi South 9.2 mph - N/A   Overcast
6:55 AM 35.8 °F 28.3 °F 29.7 °F 78% 29.96 in 10.0 mi SSW 10.4 mph - N/A   Overcast
7:15 AM 35.8 °F 28.8 °F 29.8 °F 79% 29.97 in 10.0 mi SW 9.2 mph - N/A   Overcast
7:35 AM 35.6 °F 29.9 °F 29.8 °F 80% 29.97 in 10.0 mi SW 6.9 mph - N/A   Overcast
7:55 AM 35.8 °F 30.9 °F 30.0 °F 80% 29.98 in 7.0 mi SW 5.8 mph - N/A   Overcast
8:15 AM 36.0 °F 30.3 °F 30.0 °F 79% 29.98 in 7.0 mi SW 6.9 mph - N/A   Overcast
8:35 AM 36.1 °F 28.2 °F 30.0 °F 78% 29.98 in 7.0 mi West 11.5 mph - N/A   Overcast
8:55 AM 36.0 °F 29.0 °F 29.8 °F 78% 29.98 in 5.0 mi West 9.2 mph - N/A   Haze
9:15 AM 35.4 °F 26.4 °F 28.6 °F 76% 29.98 in 5.0 mi West 13.8 mph - N/A   Haze
9:35 AM 34.7 °F 25.5 °F 28.4 °F 78% 29.98 in 5.0 mi West 13.8 mph 18.4 mph N/A   Haze
9:55 AM 34.3 °F 24.2 °F 27.5 °F 76% 29.98 in 7.0 mi West 16.1 mph - N/A   Overcast
10:15 AM 33.8 °F 23.9 °F 26.6 °F 75% 29.98 in 7.0 mi West 15.0 mph 21.9 mph N/A   Overcast
10:35 AM 32.4 °F 22.5 °F 25.9 °F 77% 29.98 in 7.0 mi WNW 13.8 mph 20.7 mph N/A   Overcast
10:55 AM 32.0 °F 20.8 °F 24.4 °F 74% 29.99 in 7.0 mi WNW 17.3 mph 25.3 mph N/A   Overcast
11:15 AM 31.1 °F 18.9 °F 23.0 °F 72% 29.99 in 10.0 mi West 19.6 mph 24.2 mph N/A   Overcast
11:35 AM 30.6 °F 17.9 °F 21.7 °F 70% 30.00 in 10.0 mi West 20.7 mph 26.5 mph N/A   Overcast
11:55 AM 30.0 °F 16.9 °F 20.8 °F 69% 30.00 in 10.0 mi West 21.9 mph 27.6 mph N/A   Overcast
12:15 PM 29.3 °F 15.9 °F 19.6 °F 67% 30.00 in 10.0 mi West 21.9 mph 27.6 mph N/A   Overcast
12:35 PM 28.9 °F 15.4 °F 18.7 °F 66% 30.00 in 10.0 mi West 21.9 mph 31.1 mph N/A   Overcast
12:55 PM 28.9 °F 16.1 °F 18.5 °F 65% 30.01 in 10.0 mi West 19.6 mph 26.5 mph N/A   Overcast
1:15 PM 29.3 °F 17.3 °F 18.3 °F 64% 30.01 in 10.0 mi West 17.3 mph 26.5 mph N/A   Overcast
1:35 PM 29.3 °F 17.7 °F 18.3 °F 64% 30.01 in 10.0 mi West 16.1 mph 26.5 mph N/A   Overcast
1:55 PM 29.5 °F 18.4 °F 18.5 °F 64% 30.01 in 10.0 mi WNW 15.0 mph - N/A Snow Light Snow
2:15 PM 29.3 °F 16.6 °F 18.7 °F 65% 30.02 in 10.0 mi WNW 19.6 mph 24.2 mph N/A Snow Light Snow
2:35 PM 30.0 °F 18.3 °F 19.2 °F 64% 30.03 in 10.0 mi WNW 17.3 mph 25.3 mph N/A Snow Light Snow
2:55 PM 30.0 °F 18.3 °F 19.4 °F 65% 30.04 in 10.0 mi WNW 17.3 mph 24.2 mph N/A Snow Light Snow
3:15 PM 29.5 °F 19.3 °F 20.8 °F 70% 30.05 in 4.0 mi WNW 12.7 mph 23.0 mph N/A Snow Light Snow
3:35 PM 30.2 °F 18.1 °F 21.2 °F 69% 30.06 in 4.0 mi WNW 18.4 mph 26.5 mph N/A Snow Light Snow
3:55 PM 28.6 °F 17.2 °F 21.0 °F 73% 30.07 in 4.0 mi WNW 15.0 mph 25.3 mph N/A Snow Light Snow
4:15 PM 27.9 °F 15.1 °F 21.0 °F 75% 30.08 in 2.5 mi WNW 18.4 mph 25.3 mph N/A Snow Light Snow
4:35 PM 27.5 °F 16.3 °F 21.2 °F 77% 30.09 in 3.0 mi NW 13.8 mph 21.9 mph N/A Snow Light Snow
4:55 PM 27.3 °F 15.2 °F 20.1 °F 74% 30.11 in 5.0 mi NW 16.1 mph - N/A Snow Light Snow
5:15 PM 26.4 °F 12.5 °F 19.9 °F 77% 30.12 in 2.0 mi North 20.7 mph 25.3 mph N/A Snow Light Snow
5:35 PM 25.2 °F 12.0 °F 15.3 °F 66% 30.14 in 10.0 mi North 17.3 mph - N/A   Overcast
5:55 PM 25.2 °F 11.6 °F 13.3 °F 61% 30.15 in 10.0 mi North 18.4 mph - N/A   Overcast
6:15 PM 25.2 °F 13.9 °F 13.5 °F 61% 30.16 in 10.0 mi NNW 12.7 mph - N/A   Overcast
6:35 PM 25.0 °F 12.6 °F 14.7 °F 65% 30.17 in 10.0 mi NNW 15.0 mph - N/A Snow Light Snow
6:55 PM 24.8 °F 12.9 °F 15.8 °F 69% 30.18 in 10.0 mi NNW 13.8 mph 20.7 mph N/A   Overcast
7:15 PM 24.8 °F 11.5 °F 14.0 °F 64% 30.19 in 10.0 mi NNW 17.3 mph 24.2 mph N/A   Overcast
7:35 PM 24.8 °F 11.9 °F 14.5 °F 65% 30.19 in 10.0 mi NNW 16.1 mph - N/A   Overcast
7:55 PM 24.6 °F 11.3 °F 13.1 °F 62% 30.20 in 10.0 mi NNW 17.3 mph - N/A   Overcast
8:15 PM 24.4 °F 11.9 °F 14.0 °F 65% 30.21 in 10.0 mi NNW 15.0 mph 20.7 mph N/A   Overcast
8:35 PM 23.9 °F 11.2 °F 13.5 °F 64% 30.22 in 10.0 mi NNW 15.0 mph - N/A   Overcast
8:55 PM 23.9 °F 9.1 °F 12.6 °F 62% 30.23 in 10.0 mi NNW 20.7 mph 25.3 mph N/A   Overcast
9:15 PM 23.9 °F 9.9 °F 12.2 °F 61% 30.24 in 10.0 mi NNW 18.4 mph - N/A   Overcast
9:35 PM 23.5 °F 10.8 °F 13.8 °F 66% 30.25 in 7.0 mi NNW 15.0 mph 23.0 mph N/A Snow Light Snow
9:55 PM 23.2 °F 9.0 °F 13.8 °F 67% 30.27 in 5.0 mi NNW 18.4 mph 25.3 mph N/A Snow Light Snow
10:15 PM 22.1 °F 7.6 °F 12.6 °F 67% 30.27 in 7.0 mi NNW 18.4 mph - N/A   Overcast
10:35 PM 21.9 °F 7.3 °F 8.4 °F 56% 30.28 in 10.0 mi North 18.4 mph 26.5 mph N/A   Overcast
10:55 PM 21.2 °F 5.6 °F 5.7 °F 51% 30.30 in 10.0 mi NNW 20.7 mph - N/A   Overcast
11:15 PM 21.0 °F 5.4 °F 4.1 °F 48% 30.30 in 10.0 mi NNW 20.7 mph 26.5 mph N/A   Overcast
11:35 PM 20.3 °F 5.2 °F 3.4 °F 48% 30.31 in 10.0 mi NNW 18.4 mph 27.6 mph N/A   Overcast
11:55 PM 19.9 °F 3.2 °F 2.3 °F 46% 30.32 in 10.0 mi NNW 23.0 mph 27.6 mph N/A   Overcast